[Iaude] MPEC T82: 2016 TJ17 [a=2.16,e=0.64,i=2.3,H=25.4]

mpec at si.edu mpec at si.edu
Sat Oct 8 16:19:52 EDT 2016


M.P.E.C. 2016-T82                                Issued 2016 Oct. 8, 20:16 UT
 
     The Minor Planet Electronic Circulars contain information on unusual
         minor planets and routine data on comets.  They are published
    on behalf of Division F of the International Astronomical Union by the
          Minor Planet Center, Smithsonian Astrophysical Observatory,
                          Cambridge, MA 02138, U.S.A.

             Prepared using the Tamkin Foundation Computer Network

                              MPC at CFA.HARVARD.EDU
            URL http://www.minorplanetcenter.net/    ISSN 1523-6714


                                   2016 TJ17
 
Observations:
     K16T17J* C2016 10 06.27431 02 19 51.46 +13 36 27.3          17.0 VqET082703
     K16T17J  C2016 10 06.28084 02 19 37.17 +13 36 50.1          16.8 VqET082703
     K16T17J  C2016 10 06.28737 02 19 23.01 +13 37 12.0          17.0 VqET082703
     K16T17J  C2016 10 06.29388 02 19 08.89 +13 37 33.7          16.8 VqET082703
     K16T17J  C2016 10 06.31084802 18 30.57 +13 38 13.7          17.3 VtET082H01
     K16T17J  C2016 10 06.31402702 18 23.87 +13 38 23.3          17.5 VtET082H01
     K16T17J  C2016 10 06.32523502 18 00.38 +13 38 56.9          17.3 VtET082H01
     K16T17J  C2016 10 06.33169302 17 47.00 +13 39 15.5          17.4 VtET082H01
     K16T17J  C2016 10 06.34414 02 17 23.56 +13 40 05.2          17.1 VqET082703
     K16T17J  C2016 10 06.35085 02 17 09.93 +13 40 23.1          17.0 VqET082703
     K16T17J  C2016 10 06.35755 02 16 56.44 +13 40 42.1          17.0 VqET082703
     K16T17J  C2016 10 06.36424 02 16 42.98 +13 40 59.7          17.1 VqET082703
     K16T17J #C2016 10 06.45154 02 13 56.36 +13 44 06.6          18.0 VqET082H06
     K16T17J #C2016 10 06.45286 02 13 53.98 +13 44 08.5          18.0 VqET082H06
     K16T17J  C2016 10 06.64670 02 09 37.56 +13 50 49.7          17.7 VqET082900
     K16T17J  C2016 10 06.65425 02 09 26.42 +13 51 03.7          17.7 VqET082900
     K16T17J  C2016 10 06.65676 02 09 22.71 +13 51 08.2          17.9 VqET082900
     K16T17J  C2016 10 06.65928 02 09 19.03 +13 51 12.8          17.8 VqET082900
     K16T17J  C2016 10 06.68583 02 08 41.82 +13 52 01.5          17.6 RoET082300
     K16T17J  C2016 10 06.68710 02 08 40.00 +13 52 03.3          17.5 RoET082300
     K16T17J  C2016 10 06.68837 02 08 38.21 +13 52 05.2          17.5 RoET082300
     K16T17J  C2016 10 06.68963 02 08 36.41 +13 52 07.5          17.6 RoET082300
     K16T17J KC2016 10 06.99803 02 03 11.23 +13 58 22.3          18.2 VqET082958
     K16T17J KC2016 10 07.00158 02 03 07.45 +13 58 27.0          18.0 VqET082958
     K16T17J KC2016 10 07.00514 02 03 03.68 +13 58 31.8          18.2 VqET082958
     K16T17J KC2016 10 07.19055002 00 30.19 +14 02 09.0          18.2 VuET082H21
     K16T17J KC2016 10 07.19440602 00 26.67 +14 02 13.8          18.3 VuET082H21
     K16T17J KC2016 10 07.19867102 00 22.80 +14 02 19.0          18.3 VuET082H21
     K16T17J KC2016 10 07.20215302 00 19.63 +14 02 23.0          18.3 VuET082H21
     K16T17J KC2016 10 07.28837 01 59 02.21 +14 04 17.7          18.0 RqET082850
     K16T17J KC2016 10 07.29550 01 58 55.96 +14 04 24.5          18.2 RqET082850
     K16T17J KC2016 10 07.30263 01 58 49.84 +14 04 29.1          18.3 RqET082850
     K16T17J KC2016 10 07.31107 01 58 42.62 +14 04 36.2          18.2 RqET082850
     K16T17J KC2016 10 07.31834 01 58 36.35 +14 04 40.1          18.2 RqET082850
     K16T17J  C2016 10 07.32072 01 58 43.45 +14 05 01.8          18.1 VqET082I52
     K16T17J  C2016 10 07.32303 01 58 41.48 +14 05 03.7          18.2 VqET082I52
     K16T17J  C2016 10 07.32660 01 58 38.44 +14 05 07.0          18.4 VqET082I52
     K16T17J  C2016 10 07.32842 01 58 36.91 +14 05 08.3          18.1 VqET082I52
     K16T17J KC2016 10 07.87273 01 53 22.48 +14 09 59.1          18.5 RqET082104
     K16T17J KC2016 10 07.87641 01 53 20.43 +14 10 01.9          18.6 RqET082104
     K16T17J KC2016 10 07.88009 01 53 18.37 +14 10 04.7          18.3 RqET082104
     K16T17J  C2016 10 08.24078 01 50 38.36 +14 13 50.0          18.8 VqET082I52
     K16T17J  C2016 10 08.24268 01 50 37.45 +14 13 50.5          18.4 VqET082I52
     K16T17J  C2016 10 08.24446 01 50 36.58 +14 13 51.5          19.2 VqET082I52
     K16T17J  C2016 10 08.24629 01 50 35.74 +14 13 53.3          18.9 VqET082I52
     K16T17J KC2016 10 08.32025 01 49 56.44 +14 14 02.3          18.6 RqET082H36
     K16T17J KC2016 10 08.32549 01 49 54.00 +14 14 04.2          18.7 RqET082H36
     K16T17J KC2016 10 08.33050 01 49 51.67 +14 14 05.8          18.9 RqET082H36
     K16T17J `C2016 10 08.72979 01 47 30.25 +14 20 33.6          19.2 VqET082Q62
     K16T17J `C2016 10 08.73868 01 47 26.99 +14 20 33.2          19.1 VqET082Q62
     K16T17J `C2016 10 08.75955 01 47 19.54 +14 20 33.5          19.0 VqET082Q62
     K16T17J `C2016 10 08.76994 01 47 15.99 +14 20 32.1          18.8 VqET082Q62
 
Observer details:
104 San Marcello Pistoiese.  Observers P. Bacci, M. Maestripieri.  Measurers
    P. Bacci, L. Tesi, G. Fagioli.  0.60-m f/4 reflector + CCD.
300 Bisei Spaceguard Center--BATTeRS.  Observers S. Okumura, A. Asami.  1.0-m
    f/3.0 reflector + CCD.
703 Catalina Sky Survey.  Observer D. C. Fuls.  Measurers E. J. Christensen,
    D. C. Fuls, A. R. Gibbs, A. D. Grauer, J. A. Johnson, R. A. Kowalski,
    S. M. Larson, G. J. Leonard, R. G. Matheny, R. L. Seaman, F. C. Shelly.
    0.68-m Schmidt + CCD.
850 Cordell-Lorenz Observatory, Sewanee.  Observers D. T. Durig, A. Tiric,
    D. J. Fisher.  0.3-m f/9.4 Schmidt-Cassegrain + CCD.
900 Moriyama.  Observer Y. Ikari.  0.26-m f/7.0 reflector + CCD.
958 Observatoire de Dax.  Observers P. Dupouy, J. B. de Vanssay.  Measurer
    P. Dupouy.  0.43-m f/2.7 reflector + CCD.
H01 Magdalena Ridge Observatory, Socorro.  Observers W. H. Ryan, E. V. Ryan.
    Measurer W. H. Ryan.  2.4-m f/8.9 reflector + CCD.
H06 iTelescope Observatory, Mayhill.  Observer M. Suzuki.  0.43-m f/6.8
    reflector + CCD + f/4.5 focal reducer.
H21 Astronomical Research Observatory, Westfield.  Observer R. Holmes.
    Measurers S. Foglia, L. Buzzi, T. Linder, R. Holmes.  0.61-m f/4.5
    astrograph + CCD.
H36 Sandlot Observatory, Scranton.  Observer G. Hug.  0.56-m reflector + CCD.
I52 Steward Observatory, Mt. Lemmon Station.  Observers J. A. Johnson,
    D. C. Fuls.  Measurers E. J. Christensen, D. C. Fuls, A. R. Gibbs,
    A. D. Grauer, J. A. Johnson, R. A. Kowalski, S. M. Larson, G. J. Leonard,
    R. G. Matheny, R. L. Seaman, F. C. Shelly.  1.0-m reflector + CCD.
Q62 iTelescope Observatory, Siding Spring.  Observer S. M. Tilley.  0.43-m
    f/6.8 reflector + CCD.
 
Orbital elements:
2016 TJ17                                                Earth MOID = 0.0012 AU
Epoch 2016 July 31.0 TT = JDT 2457600.5                 MPC
M 352.50533              (2000.0)            P               Q
n   0.31060600     Peri.  294.30005     +0.61569808     +0.78792253
a   2.1593821      Node    13.71575     -0.70732989     +0.55805914
e   0.6380204      Incl.    2.34298     -0.34727553     +0.26028463
P   3.17           H   25.4           G   0.15           U   6
Residuals in seconds of arc
161006 703  0.1-  0.1-    161006 300  0.4+  0.1+    161007 I52  0.4+  0.1-
161006 703  0.5-  0.3+    161006 300  0.3+  0.2-    161007 I52  0.7+  0.4-
161006 703  0.2-  0.3+    161006 300  0.6+  0.4-    161007 104  0.0   0.1+
161006 703  1.3-  0.6+    161006 300  0.5+  0.2-    161007 104  0.2+  0.0
161006 H01  0.2+  0.2-    161006 958  0.9-  0.0     161007 104  0.3+  0.1-
161006 H01  0.3+  0.2-    161007 958  0.8-  0.1-    161008 I52  0.2-  0.3+
161006 H01  0.1+  0.0     161007 958  0.6-  0.0     161008 I52  0.2-  0.4-
161006 H01  0.4+  0.1-    161007 H21  0.3+  0.2-    161008 I52  0.4-  0.4-
161006 703  0.1+  0.0     161007 H21  0.2+  0.2-    161008 I52  0.1+  0.3+
161006 703  0.4+  0.6-    161007 H21  0.3+  0.1-    161008 H36  0.1+  0.1-
161006 703  0.8+  0.3+    161007 H21  0.2+  0.3-    161008 H36  0.1+  0.1+
161006 703  0.1-  0.2+    161007 850  0.1+  0.0     161008 H36  0.0   0.2+
161006 H06  0.8+  0.5+    161007 850  0.8-  0.8+    161008 Q62  0.2+  0.5+
161006 H06  0.2-  0.1-    161007 850  0.4-  0.3-    161008 Q62  0.0   0.1+
161006 900  0.1+  0.3+    161007 850  0.3-  0.3+    161008 Q62  0.0   0.8+
161006 900  0.3+  0.3+    161007 850  1.6-  1.2-    161008 Q62  0.8+  0.2-
161006 900  0.0   0.2+    161007 I52  0.2+  0.1+
161006 900  0.2+  0.3+    161007 I52  0.3+  0.2-

Ephemeris:
2016 TJ17                a,e,i = 2.16, 0.64, 2                   q = 0.7817
Date    TT    R. A. (2000) Decl.     Delta      r     Elong.  Phase     V
2016 09 08    13 16 23.5 -13 03 57   0.2617  0.8147    37.3   131.5    27.9
...
2016 09 23    13 21 12.9 -14 24 13   0.1103  0.9042    24.6   152.5    29.3
...
2016 10 01    13 07 50.8 -14 43 48   0.03505 0.9674    14.9   164.5    30.9
...
2016 10 07    02 03 04.2 +14 01 52   0.02101 1.0192   160.4    19.2    18.0
2016 10 08    01 52 11.8 +14 13 45   0.03022 1.0282   163.6    15.9    18.7
2016 10 09    01 46 22.6 +14 19 02   0.03949 1.0372   165.8    13.7    19.2
...
2016 10 15    01 35 03.5 +14 23 54   0.09583 1.0923   173.1     6.3    21.0
...
2016 10 23    01 31 25.1 +14 17 30   0.1738  1.1680   174.5     4.7    22.3
...
2016 11 07    01 31 22.6 +14 07 10   0.3353  1.3127   161.1    14.2    24.4

A. U. Tomatic                (C) Copyright 2016 MPC           M.P.E.C. 2016-T82




More information about the Iaude mailing list